Robinson, IL

4:47 AM CST on November 13, 2019 (GMT -0600)
Robinson Municipal

Weather History for KRSV - October, 2019

Change the Weather History Date:

Monday, October 21, 2019

  Actual Average (WUND) Record (WUND)
Temperature  
Mean Temperature 58 °F -  
Max Temperature 66 °F - - (-1)
Min Temperature 49 °F - - (-1)
Degree Days  
Heating Degree Days 6    
Growing Degree Days 8 (Base 50)    
Moisture  
Dew Point 57 °F    
Average Humidity 87    
Maximum Humidity 100    
Minimum Humidity 66    
Precipitation  
Precipitation 0.79 in - - ()
Sea Level Pressure  
Sea Level Pressure 29.69 in    
Wind  
Wind Speed 10 mph (South)    
Max Wind Speed 22 mph    
Max Gust Speed 30 mph    
Visibility 10 miles    
Events Rain , Thunderstorm    
Averages and records for this station are not official NWS values.
T = Trace of Precipitation, MM = Missing Value Source: NWS Daily Summary

Daily Weather History Graph

Daily Weather History Graph

Search for Another Location

Airport or City:

Astronomy

Oct. 21, 2019 Rise Set
Actual Time 7:06 AM CDT 6:03 PM CDT
Civil Twilight 6:38 AM CDT 6:30 PM CDT
Nautical Twilight 6:07 AM CDT 7:02 PM CDT
Astronomical Twilight 5:36 AM CDT 7:32 PM CDT
Moon No Moon Rise 2:22 PM CDT (10/21)
Length of Visible Light 11h 52m
Length of Day
10h 57m
Waning Gibbous, 48% of the Moon is Illuminated
Oct 21
Waning Gibbous
Oct 27
New
Nov 4
First Quarter
Nov 12
Full
Nov 19
Last Quarter

Hourly Weather History & Observations

Time (CDT) Temp. Dew Point Humidity Pressure Visibility Wind Dir Wind Speed Gust Speed Precip Events Conditions
12:15 AM 56.5 °F 51.8 °F 84% 29.84 in 10.0 mi SE 6.9 mph - N/A   Mostly Cloudy
12:35 AM 58.3 °F 52.3 °F 81% 29.82 in 10.0 mi SE 8.1 mph - N/A   Overcast
12:55 AM 58.5 °F 52.3 °F 80% 29.81 in 10.0 mi SE 9.2 mph - N/A   Overcast
1:15 AM 57.6 °F 52.7 °F 84% 29.81 in 10.0 mi SSE 5.8 mph - N/A   Overcast
1:35 AM 57.6 °F 53.2 °F 85% 29.81 in 10.0 mi SSE 5.8 mph - N/A   Overcast
1:55 AM 57.2 °F 53.6 °F 88% 29.81 in 10.0 mi SSE 5.8 mph - N/A   Overcast
2:35 AM 58.1 °F 54.0 °F 86% 29.79 in 10.0 mi SE 5.8 mph - N/A   Overcast
2:55 AM 58.3 °F 54.5 °F 87% 29.80 in 10.0 mi SE 5.8 mph - N/A   Overcast
3:15 AM 58.1 °F 54.5 °F 88% 29.79 in 10.0 mi SE 6.9 mph - N/A   Overcast
3:35 AM 58.6 °F 55.0 °F 88% 29.77 in 10.0 mi SE 6.9 mph - N/A   Overcast
3:55 AM 58.6 °F 55.0 °F 88% 29.75 in 10.0 mi ESE 9.2 mph - N/A   Mostly Cloudy
4:15 AM 59.2 °F 55.4 °F 87% 29.75 in 10.0 mi SE 8.1 mph - N/A   Mostly Cloudy
4:35 AM 59.9 °F 55.4 °F 85% 29.74 in 10.0 mi SE 6.9 mph - N/A   Overcast
4:55 AM 59.5 °F 55.4 °F 86% 29.71 in 10.0 mi ESE 9.2 mph - N/A   Mostly Cloudy
5:15 AM 59.9 °F 55.4 °F 85% 29.68 in 10.0 mi ESE 12.7 mph 18.4 mph N/A   Scattered Clouds
5:35 AM 59.9 °F 55.4 °F 85% 29.69 in 10.0 mi SE 10.4 mph - N/A   Scattered Clouds
5:55 AM 60.1 °F 55.8 °F 86% 29.68 in 10.0 mi ESE 10.4 mph - N/A   Mostly Cloudy
6:15 AM 60.1 °F 55.8 °F 86% 29.67 in 10.0 mi SE 11.5 mph - N/A   Overcast
6:35 AM 58.6 °F 57.2 °F 95% 29.70 in 2.5 mi SW 5.8 mph - 0.17 in Rain , Thunderstorm Heavy Thunderstorms and Rain
6:55 AM 57.6 °F 57.6 °F 100% 29.71 in 1.8 mi SSE 3.5 mph - 0.53 in Rain , Thunderstorm Heavy Thunderstorms and Rain
7:15 AM 58.1 °F 58.1 °F 100% 29.71 in 4.0 mi SSW 3.5 mph - 0.08 in   Overcast
7:35 AM 58.1 °F 58.1 °F 100% 29.68 in 7.0 mi SE 8.1 mph - 0.14 in Rain , Thunderstorm Rain
7:55 AM 58.3 °F 58.3 °F 100% 29.67 in 10.0 mi SE 8.1 mph - 0.16 in Rain , Thunderstorm Light Thunderstorms and Rain
8:15 AM 59.0 °F 59.0 °F 100% 29.69 in 7.0 mi SSE 8.1 mph - 0.01 in Rain Light Rain
8:35 AM 59.5 °F 59.5 °F 100% 29.69 in 7.0 mi SSE 10.4 mph - 0.04 in Rain Light Rain
8:55 AM 59.9 °F 59.9 °F 100% 29.67 in 10.0 mi SE 9.2 mph - 0.05 in Rain Light Rain
9:15 AM 60.1 °F 60.1 °F 100% 29.66 in 10.0 mi SSE 10.4 mph - 0.01 in Rain Light Rain
9:35 AM 60.1 °F 60.1 °F 100% 29.65 in 10.0 mi SSE 11.5 mph 16.1 mph 0.01 in   Light Drizzle
9:55 AM 60.4 °F 60.4 °F 100% 29.64 in 10.0 mi SSE 12.7 mph 17.3 mph 0.02 in Rain Rain
10:15 AM 60.8 °F 60.8 °F 100% 29.63 in 7.0 mi SSE 16.1 mph 19.6 mph N/A Rain Light Rain
10:35 AM 61.0 °F 61.0 °F 100% 29.60 in 10.0 mi SE 18.4 mph 25.3 mph 0.02 in Rain Light Rain
10:55 AM 61.0 °F 61.0 °F 100% 29.54 in 10.0 mi SE 21.9 mph 29.9 mph 0.03 in Rain Light Rain
11:15 AM 62.6 °F 62.1 °F 98% 29.58 in 10.0 mi SSE 15.0 mph 24.2 mph N/A   Overcast
11:35 AM 62.8 °F 61.7 °F 96% 29.61 in 10.0 mi South 18.4 mph 23.0 mph N/A   Overcast
11:55 AM 63.5 °F 62.1 °F 95% 29.62 in 10.0 mi South 16.1 mph 19.6 mph N/A   Overcast
12:15 PM 63.7 °F 61.9 °F 94% 29.62 in 10.0 mi SSW 10.4 mph 18.4 mph N/A   Overcast
12:35 PM 64.4 °F 61.7 °F 91% 29.64 in 10.0 mi SSW 13.8 mph 20.7 mph N/A   Overcast
12:55 PM 64.4 °F 61.3 °F 90% 29.65 in 10.0 mi SSW 13.8 mph 19.6 mph N/A   Overcast
1:15 PM 64.4 °F 61.0 °F 89% 29.63 in 10.0 mi SSW 13.8 mph 21.9 mph N/A   Mostly Cloudy
1:35 PM 64.6 °F 59.9 °F 85% 29.63 in 10.0 mi SSW 16.1 mph 24.2 mph N/A   Mostly Cloudy
1:55 PM 64.8 °F 59.4 °F 83% 29.63 in 10.0 mi SSW 16.1 mph 25.3 mph N/A   Overcast
2:15 PM 64.8 °F 59.4 °F 83% 29.62 in 10.0 mi SSW 16.1 mph 21.9 mph N/A   Overcast
2:35 PM 64.9 °F 59.2 °F 82% 29.62 in 10.0 mi SSW 17.3 mph 25.3 mph N/A   Overcast
2:55 PM 65.3 °F 59.5 °F 82% 29.62 in 10.0 mi SSW 17.3 mph 23.0 mph N/A   Overcast
3:15 PM 65.5 °F 59.5 °F 81% 29.62 in 10.0 mi SSW 16.1 mph 23.0 mph N/A   Overcast
3:35 PM 65.7 °F 59.4 °F 80% 29.62 in 10.0 mi SSW 13.8 mph 26.5 mph N/A   Mostly Cloudy
3:55 PM 66.2 °F 59.2 °F 78% 29.62 in 10.0 mi SSW 16.1 mph 25.3 mph N/A   Overcast
4:15 PM 65.7 °F 58.6 °F 78% 29.62 in 10.0 mi SSW 18.4 mph 24.2 mph N/A   Overcast
4:35 PM 65.5 °F 58.8 °F 79% 29.62 in 10.0 mi South 17.3 mph 23.0 mph N/A   Mostly Cloudy
4:55 PM 65.3 °F 58.5 °F 78% 29.63 in 10.0 mi SSW 19.6 mph 25.3 mph N/A   Mostly Cloudy
5:15 PM 65.1 °F 58.6 °F 79% 29.64 in 10.0 mi SSW 18.4 mph 21.9 mph N/A   Overcast
5:35 PM 65.5 °F 59.0 °F 80% 29.64 in 10.0 mi SSW 12.7 mph 20.7 mph N/A   Mostly Cloudy
5:55 PM 64.6 °F 58.1 °F 79% 29.65 in 10.0 mi SSW 17.3 mph 27.6 mph N/A   Mostly Cloudy
6:15 PM 63.9 °F 57.2 °F 79% 29.66 in 10.0 mi SSW 16.1 mph 23.0 mph N/A   Mostly Cloudy
6:35 PM 62.8 °F 57.0 °F 81% 29.66 in 10.0 mi SSW 12.7 mph 19.6 mph N/A   Scattered Clouds
6:55 PM 62.1 °F 56.8 °F 83% 29.68 in 10.0 mi SSW 15.0 mph 18.4 mph N/A   Clear
7:15 PM 61.7 °F 56.8 °F 84% 29.68 in 10.0 mi SSW 10.4 mph - N/A   Clear
7:35 PM 61.3 °F 56.8 °F 85% 29.69 in 10.0 mi SSW 11.5 mph 17.3 mph N/A   Clear
7:55 PM 60.8 °F 56.8 °F 87% 29.70 in 10.0 mi SSW 11.5 mph 17.3 mph N/A   Scattered Clouds
8:15 PM 60.6 °F 56.8 °F 87% 29.70 in 10.0 mi SSW 11.5 mph - N/A   Clear
8:35 PM 59.9 °F 56.8 °F 90% 29.71 in 10.0 mi SSW 9.2 mph - N/A   Clear
8:55 PM 60.1 °F 57.2 °F 90% 29.72 in 10.0 mi SW 10.4 mph - N/A   Mostly Cloudy
9:15 PM 59.7 °F 56.5 °F 89% 29.73 in 10.0 mi WSW 12.7 mph - N/A   Scattered Clouds
9:35 PM 58.1 °F 55.4 °F 91% 29.75 in 10.0 mi West 11.5 mph - N/A   Clear
9:55 PM 57.9 °F 46.6 °F 66% 29.76 in 10.0 mi West 16.1 mph - N/A   Scattered Clouds
10:15 PM 55.8 °F 45.3 °F 68% 29.77 in 10.0 mi West 6.9 mph - N/A   Mostly Cloudy
10:35 PM 55.9 °F 46.8 °F 71% 29.77 in 10.0 mi WSW 5.8 mph - N/A   Overcast
10:55 PM 55.0 °F 46.0 °F 72% 29.78 in 10.0 mi SSW 5.8 mph - N/A   Overcast
11:15 PM 53.1 °F 45.3 °F 75% 29.78 in 10.0 mi SSW 5.8 mph - N/A   Mostly Cloudy
11:35 PM 51.1 °F 45.0 °F 80% 29.78 in 10.0 mi SSW 6.9 mph - N/A   Scattered Clouds
11:55 PM 49.6 °F 45.5 °F 86% 29.78 in 10.0 mi South 6.9 mph - N/A   Clear